This is the latest recevied weather packets stored in our database for station/object KG4AGD. If no packets are shown the sender has not sent any weather packets the latest 10 day(s).
| Time | Temp. | Humidity | Pressure | Rain* | Wind** | Luminosity | Snow |
|---|---|---|---|---|---|---|---|
| 1777912568 | 26.11° C | 38% | 1017.6 hPa | 0 mm | - | - | - |
| 1777912266 | 26.11° C | 41% | 1017.6 hPa | 0 mm | - | - | - |
| 1777911964 | 25.56° C | 43% | 1017.6 hPa | 0 mm | - | - | - |
| 1777911661 | 25° C | 45% | 1017.9 hPa | 0 mm | - | - | - |
| 1777911359 | 25° C | 44% | 1017.9 hPa | 0 mm | - | - | - |
| 1777911057 | 25° C | 43% | 1017.9 hPa | 0 mm | - | - | - |
| 1777910755 | 23.89° C | 46% | 1017.9 hPa | 0 mm | - | - | - |
| 1777910453 | 23.89° C | 47% | 1017.9 hPa | 0 mm | - | - | - |
| 1777910151 | 24.44° C | 47% | 1017.9 hPa | 0 mm | - | - | - |
| 1777909848 | 23.33° C | 50% | 1017.9 hPa | 0 mm | - | - | - |
| 1777909546 | 23.89° C | 50% | 1017.9 hPa | 0 mm | - | - | - |
| 1777909244 | 23.89° C | 51% | 1018.2 hPa | 0 mm | - | - | - |
| 1777908942 | 23.33° C | 48% | 1018.2 hPa | 0 mm | - | - | - |
| 1777908640 | 23.33° C | 52% | 1018.2 hPa | 0 mm | - | - | - |
| 1777908337 | 23.33° C | 56% | 1018.2 hPa | 0 mm | - | - | - |
| 1777908035 | 22.22° C | 55% | 1018.2 hPa | 0 mm | - | - | - |
| 1777907733 | 22.78° C | 54% | 1018.2 hPa | 0 mm | - | - | - |
| 1777907431 | 22.22° C | 54% | 1018.2 hPa | 0 mm | - | - | - |
| 1777907128 | 22.22° C | 57% | 1018.6 hPa | 0 mm | - | - | - |
| 1777906826 | 21.67° C | 59% | 1018.6 hPa | 0 mm | - | - | - |
| 1777906524 | 22.22° C | 58% | 1018.6 hPa | 0 mm | - | - | - |
| 1777906222 | 21.11° C | 58% | 1018.6 hPa | 0 mm | - | - | - |
| 1777905920 | 21.67° C | 57% | 1018.6 hPa | 0 mm | - | - | - |
| 1777905617 | 21.11° C | 61% | 1018.6 hPa | 0 mm | - | - | - |
| 1777905315 | 21.67° C | 60% | 1018.6 hPa | 0 mm | - | - | - |
* Rain since midnight (hover to see other rain measurements)
** Current wind speed in m/s (hover to see current wind gust speed)